CZ-4C DEB, 42670

Orbit data source: Space-Track

CZ-4C DEB, 42670 is space debris in SSO originally from a launch on Thu, 26 Nov 2015 UTC launched from the Taiyaun Space Center, China (TSC). Debris objects in space refer to the collection of defunct objects orbiting the Earth. Examples of debris include non-operational satellites, rocket bodies, and fragments generated from explosions, collisions, or faulty payload assembly.

Loading next visibility...
Identifier
42670, 2015-069C
Orbit
SSO
Country
Flag of CNCN / PRC
Related business
Manufacturer
Unknown
Mission
Spacecraft
Bus & Motor
Unknown
Mass
Unknown
Launch date (UTC)
2015-11-26 (11 years ago)
Launch vehicle
Unknown
Launch site
Taiyaun Space Center, China (TSC)
Object type
Payload
Rocket body
Debris
Shape & HBR
Unknown shape, 0.1 m
Radar Cross Section
Small (<0.1 m²)

Expand to show TLE details & history
Last TLE update: 2 days ago

TLE from 2 days ago
0 CZ-4C DEB
1 42670U 15069C   26171.44404524  .00007801  00000-0  23630-3 0  9997
2 42670  97.4762 241.9383 0056419 149.3556 211.1002 15.32847387533572
Epoch: 2026-06-20T10:39Z
TLE epoch observation values (Epoch: 2026-06-20T10:39:25.508Z)
Latitude
-0.00003°
Longitude
173.42344°
Altitude
503.563 km
Speed
7.594 km/s
True Right ascension
16h 07m 45s
True Declination
0° 00' 00"
Sunlit
Object was in full shadow at epoch
Visualization orbit readout
Latitude
Unknown
Longitude
Unknown
Altitude
Unknown
Speed
Unknown
Apparent Right ascension
Unknown
Apparent Declination
Unknown
Sunlit
N/A
Visualization observer readout
Local Sidereal Time
21:35:18
Azimuth
Unknown
Elevation
Unknown
Doppler factor
Unknown
Orbital elements
Apogee altitude
502.878 km
Perigee altitude
425.669 km
Semi-major axis
6,842.41 km
Eccentricity
0.00564
Inclination
97.4762°
RAAN
241.9383°
Arg. of periapsis
149.3556°
True anomaly
210.76826°
Mean anomaly
211.1002°
Eccentric anomaly
210.93403°
Mean motion
3.83468 °/min
Orbital period
93.88 mins
BSTAR
0.0002363
Loading maneuver chart data...
Computing Atmospheric mass density...
Loading historical data...
Loading historical data...
Loading historical data...
Loading historical data...
Loading historical data...
Loading historical data...
Loading historical data...
Other satellites on launch #69 in the year 2015 (2015-11-26 UTC)

Documentation

Showing up to 5 results
|